Theta_e
319 319 320 320 320 320 321 321 321 321 321 321 322 322 323 319 318 312 303 306 312 319 316 309 306 305 306 305 310 308 295 292 294 295 298 303 300 304 305 304 305 310 310 320 331
317 317 317 318 318 318 319 319 319 320 321 321 320 321 322 319 311 306 311 316 316 319 307 304 301 303 301 304 304 300 293 295 300 300 299 303 301 303 301 302 303 306 311 317 329
315 315 316 316 316 317 318 318 318 319 320 320 320 320 322 316 304 303 314 313 314 315 307 306 304 302 300 302 301 299 295 299 299 302 302 301 299 301 298 299 303 303 307 311 321
313 313 313 314 315 316 316 316 318 319 319 320 320 321 320 311 294 303 314 311 315 309 305 304 302 299 298 298 302 295 300 299 302 302 301 298 300 299 299 300 302 301 304 309 311
311 311 311 312 313 314 314 314 315 318 319 320 319 320 311 303 303 304 313 312 307 307 302 302 299 299 297 298 300 297 297 299 300 300 298 299 297 297 299 303 304 303 302 300 306
309 310 310 311 312 312 313 313 314 317 318 318 318 319 307 298 304 304 304 305 304 303 302 302 301 301 297 297 296 297 297 298 298 298 299 296 296 296 299 302 302 302 300 299 300
308 308 308 309 310 310 311 313 315 317 317 317 318 309 302 301 305 305 304 304 304 304 301 304 304 299 299 297 299 298 292 296 296 297 295 295 291 292 299 299 298 298 298 298 300
306 306 307 307 308 309 310 312 316 317 316 314 313 306 299 304 304 302 304 303 306 306 305 305 304 301 299 298 296 292 292 289 294 295 293 292 289 295 298 296 295 296 296 297 298
305 306 306 306 308 309 311 314 316 314 312 312 307 303 298 305 300 303 302 300 303 304 304 302 303 297 295 291 289 290 285 288 292 294 292 290 290 293 296 295 294 295 295 296 297
306 306 306 306 308 310 313 316 317 311 309 307 303 298 303 298 301 300 302 301 300 300 299 297 295 290 290 288 283 287 285 289 289 290 291 289 288 294 294 294 294 294 295 296 297
305 306 306 306 306 311 312 310 302 304 302 297 299 300 303 301 301 298 301 299 299 296 289 293 287 284 288 290 291 293 289 289 292 291 290 289 290 293 295 293 293 293 295 297 297
304 305 306 305 306 309 308 300 298 298 289 298 300 301 305 306 295 297 300 293 292 288 291 289 284 291 294 294 291 289 286 286 293 291 289 289 290 294 296 296 295 295 295 296 297
303 304 306 306 307 304 302 300 306 304 290 295 300 301 297 301 296 299 296 294 291 289 289 287 291 294 292 291 290 289 286 286 287 289 289 285 286 289 294 296 297 298 297 296 295
303 303 304 305 302 299 299 303 307 306 285 290 294 294 297 298 294 297 298 294 292 289 291 290 294 292 289 290 290 285 291 291 290 284 280 286 278 289 293 292 294 295 292 291 293
302 302 303 304 299 296 299 303 305 301 271 292 292 298 296 293 294 293 297 294 288 291 291 289 290 288 288 289 292 288 290 289 288 283 280 282 277 285 292 291 291 292 292 291 292
301 301 303 301 303 300 304 305 303 284 271 288 292 290 292 294 293 294 293 295 293 289 291 290 293 288 290 288 289 291 287 286 284 281 272 281 281 285 288 291 293 293 293 292 292
301 302 302 302 294 302 304 301 282 274 287 283 286 290 289 288 290 290 289 287 285 281 282 288 288 288 289 285 288 289 285 279 277 272 275 285 280 286 292 293 292 293 291 291 291
300 303 304 299 299 299 301 290 270 279 281 288 286 286 282 286 287 290 285 284 288 287 284 281 281 289 288 286 284 284 285 281 276 277 277 280 277 286 291 289 291 292 291 291 291
300 298 300 298 299 299 292 277 277 281 284 282 283 280 281 285 285 285 286 285 289 289 281 282 282 287 288 289 289 284 280 287 281 278 276 279 282 288 288 287 287 289 289 289 290
293 294 295 298 300 296 286 279 281 285 284 283 277 281 276 278 279 280 282 288 287 291 289 284 278 286 286 287 287 287 287 279 281 275 275 278 279 283 283 285 287 287 287 289 290
293 287 294 298 298 290 278 278 282 284 283 279 277 277 277 277 278 278 279 285 288 287 290 287 282 280 283 281 281 282 281 283 284 281 278 277 277 285 284 287 286 287 288 289 290
289 282 294 296 284 282 277 278 284 281 284 282 281 280 277 277 276 277 278 282 288 287 284 287 282 276 280 288 286 284 283 283 278 277 280 280 277 288 287 289 289 288 289 289 290
284 284 294 292 275 275 279 278 279 279 279 278 277 280 280 276 274 277 279 286 288 284 282 285 277 274 277 281 284 282 283 284 283 282 278 276 277 288 288 288 289 287 288 289 289
284 277 285 287 284 277 273 274 273 280 278 278 277 280 277 275 278 275 277 282 284 284 287 285 280 275 272 278 281 279 282 283 281 277 276 279 279 286 286 286 287 288 287 287 289
286 280 281 274 276 277 277 275 272 272 278 279 276 276 275 272 273 275 277 278 280 285 282 280 276 278 278 279 280 280 280 281 281 281 278 279 281 285 288 287 291 289 290 289 288
282 280 283 278 279 277 277 275 274 275 275 274 274 275 275 272 273 272 275 277 276 278 277 280 273 274 271 275 277 276 279 280 281 281 282 282 280 288 289 287 288 289 288 287 288
289 289 283 279 278 275 275 276 275 277 278 278 277 276 274 276 279 280 280 280 278 275 274 274 274 273 268 274 273 269 274 278 279 282 283 279 283 287 286 288 287 286 288 287 287
Wind_Speed
18 20 21 21 20 19 18 16 16 16 18 18 18 19 18 17 17 4 6 4 4 3 4 5 4 5 4 4 2 2 3 5 7 6 4 6 3 3 5 3 1 4 6 6 12
19 20 20 19 20 21 20 19 19 19 18 17 19 19 19 15 8 10 5 5 4 2 3 6 5 5 4 3 4 4 3 4 6 6 4 5 3 5 3 5 5 5 7 4 9
21 21 20 20 21 22 22 23 21 19 18 18 17 18 17 12 6 2 2 4 2 4 5 6 7 7 7 5 5 6 4 4 4 7 8 5 1 0 3 6 7 12 12 9 7
22 23 23 23 21 22 22 23 22 20 19 17 18 17 14 5 5 3 2 2 3 4 5 3 5 3 4 7 8 4 8 5 3 5 3 2 5 5 6 6 5 8 3 11 10
23 24 25 24 24 24 23 23 23 21 19 18 15 14 8 5 4 3 1 0 3 1 4 4 7 4 5 3 3 5 6 1 5 4 7 4 5 6 10 9 6 7 5 1 9
25 25 25 25 26 27 27 25 25 20 20 19 12 8 4 8 4 3 2 1 3 3 2 3 3 6 3 3 5 6 7 5 6 7 6 3 5 3 7 11 12 5 8 8 7
25 26 26 26 27 26 28 28 25 22 19 13 7 3 6 11 2 2 2 1 0 3 2 1 4 3 5 4 4 3 5 7 11 7 3 3 6 15 13 6 6 6 4 5 8
26 27 27 27 28 29 30 28 24 22 13 4 2 3 7 2 5 1 2 3 2 2 1 1 3 2 1 1 3 3 3 4 5 10 4 5 7 2 7 11 9 9 8 8 8
26 26 28 29 28 29 29 28 24 7 5 4 4 2 5 2 1 3 4 4 3 1 1 2 2 1 2 3 2 6 5 7 2 7 5 9 6 3 4 7 8 9 8 8 8
27 27 29 30 29 28 26 28 10 4 5 3 3 1 3 4 2 2 0 5 3 4 3 4 4 4 3 5 8 7 5 6 9 7 5 6 13 8 7 8 8 8 9 9 9
28 29 30 30 29 25 19 6 7 2 7 8 16 15 17 3 3 5 1 3 3 5 5 6 6 10 13 16 9 6 3 7 2 4 5 9 12 13 8 10 10 10 9 9 9
30 31 31 32 27 20 12 8 7 5 15 16 20 17 16 4 5 5 4 5 4 7 9 2 12 12 10 9 11 11 8 8 7 6 3 6 12 11 11 10 13 14 12 11 9
29 30 31 30 23 6 11 10 6 7 7 10 5 4 5 3 5 5 6 4 6 8 10 12 3 1 14 8 7 8 9 5 7 2 5 5 11 11 13 20 16 12 8 6 9
29 30 30 30 4 11 5 13 9 5 5 6 3 4 2 2 3 5 5 4 6 7 10 12 16 15 4 10 7 8 4 10 6 5 5 3 9 6 5 6 8 9 7 7 6
29 30 27 12 7 6 13 14 11 2 7 7 5 4 4 4 5 3 3 2 9 9 3 6 1 4 13 9 8 4 3 3 4 3 5 5 2 6 11 13 9 11 9 10 9
29 28 21 8 3 11 14 14 5 2 6 7 4 7 11 1 2 2 2 2 3 7 13 19 2 4 5 3 3 8 6 5 3 5 1 11 9 18 13 13 9 9 12 10 10
29 24 10 8 8 14 13 6 2 1 12 7 10 19 18 13 5 3 3 5 4 6 5 7 21 5 4 3 2 5 6 2 3 2 12 10 9 23 6 7 2 8 12 10 9
29 16 4 6 10 12 6 2 1 2 4 12 17 20 15 20 14 3 4 9 10 12 4 4 5 17 12 13 9 13 15 8 8 7 4 3 10 10 3 3 5 10 10 9 9
25 5 3 8 12 8 4 2 4 8 14 14 17 11 8 16 9 12 10 12 7 4 5 5 6 6 5 8 8 5 10 11 5 4 1 5 8 9 6 3 2 9 9 9 9
8 3 4 13 11 5 3 2 4 11 16 15 10 8 15 15 14 13 5 7 5 3 10 2 7 8 3 4 7 9 3 5 3 6 6 6 6 7 4 7 6 8 10 11 9
3 3 6 14 6 2 3 4 5 15 16 12 15 16 18 20 17 14 8 13 12 7 6 6 8 2 2 8 7 5 6 5 4 4 3 1 5 1 4 3 9 8 9 10 11
4 3 7 9 3 2 2 6 14 13 13 12 10 10 6 17 11 9 9 14 16 10 6 1 4 4 7 3 8 6 12 11 3 3 2 2 7 3 4 6 7 7 8 9 9
4 3 5 5 3 3 5 7 13 12 11 10 12 10 17 16 10 9 13 10 11 6 7 5 4 4 4 3 4 3 8 11 7 1 5 4 5 2 7 8 7 4 8 9 9
3 3 2 3 3 6 6 3 6 9 11 13 15 14 14 13 15 11 13 7 19 7 7 5 6 6 14 8 1 4 4 7 10 4 5 10 7 11 8 7 6 6 3 8 9
1 1 2 2 2 8 8 9 8 6 5 8 6 13 12 6 18 6 8 12 13 5 11 10 6 5 10 16 10 11 11 7 10 9 5 4 11 9 9 6 4 3 4 6 6
2 1 1 6 7 8 8 6 13 8 10 11 13 15 15 14 14 20 16 13 5 10 14 8 8 18 13 12 9 13 15 14 16 14 12 17 21 13 7 3 4 5 8 8 8
1 3 2 5 5 6 7 9 13 13 8 11 16 15 16 19 17 18 15 14 16 18 17 10 5 8 7 8 14 9 9 15 16 14 13 15 19 11 5 7 8 5 8 9 6
Wind_Direction
17 12 7 1 359 356 352 347 341 337 335 331 330 329 330 332 320 244 256 21 49 16 309 269 226 211 241 233 289 281 279 262 236 211 76 102 193 126 11 345 327 119 52 84 126
16 11 6 2 354 349 344 342 338 335 332 329 328 326 328 329 304 268 100 81 17 332 251 237 182 179 219 219 198 216 228 269 8 39 38 95 318 145 174 200 209 122 92 104 140
11 7 5 359 353 348 342 338 335 331 329 328 328 325 321 316 275 115 63 46 349 284 270 302 293 201 255 180 216 201 220 36 63 28 10 347 328 357 273 258 199 188 165 175 169
8 3 360 354 351 345 340 334 328 327 325 325 324 322 317 274 301 99 42 30 303 295 267 233 243 194 246 207 218 264 227 274 35 73 281 231 357 321 237 258 54 46 75 154 183
6 360 354 350 345 341 337 330 326 322 321 322 322 319 323 264 266 130 123 122 231 232 248 225 256 238 265 241 135 230 269 241 280 132 243 310 250 253 278 264 231 117 50 206 180
4 358 353 348 343 338 332 327 321 318 316 316 316 312 242 267 98 106 81 73 313 250 214 255 290 328 312 303 202 4 333 283 254 217 236 201 246 202 230 238 249 228 188 210 242
359 355 349 346 342 338 330 321 315 313 310 302 297 273 250 247 26 78 171 17 37 297 294 341 336 279 343 248 42 351 299 255 224 198 248 95 265 232 217 170 198 231 229 226 220
0 355 350 346 340 335 327 315 312 310 306 302 275 270 256 31 8 243 184 162 195 219 256 51 231 290 341 34 209 237 200 268 3 144 148 182 250 96 184 162 207 204 207 208 223
356 352 349 346 341 332 323 312 307 301 291 270 239 225 263 200 290 42 301 271 148 174 177 186 232 261 143 199 240 207 253 207 253 192 132 194 264 88 141 164 217 204 200 196 208
357 353 350 346 341 332 322 304 286 276 233 232 248 296 215 348 17 325 337 264 226 154 177 211 220 201 197 175 209 202 216 243 238 200 220 213 256 256 197 190 224 196 210 203 197
355 352 347 344 342 335 335 337 358 169 9 284 278 288 294 85 179 209 186 179 225 214 206 204 214 211 203 209 235 234 268 258 240 172 184 227 250 259 239 203 206 211 217 224 203
353 350 344 339 339 333 26 51 33 312 302 281 262 268 276 293 287 205 160 208 195 222 216 154 239 233 240 230 227 241 251 258 298 156 182 261 263 264 252 233 205 213 216 217 184
351 347 342 334 327 337 62 35 325 331 272 303 11 4 17 14 273 298 182 199 233 233 232 226 209 294 233 227 227 235 217 211 214 156 228 330 274 231 243 237 233 227 208 188 177
350 349 343 333 355 319 59 350 339 329 304 280 59 61 316 293 248 7 346 327 242 257 237 243 243 246 267 236 183 247 221 228 238 112 232 175 278 226 251 228 204 212 188 192 198
350 350 343 354 321 18 328 322 315 259 342 24 43 320 344 314 326 77 13 260 269 250 268 226 275 290 221 222 208 221 30 338 191 145 54 219 311 247 213 242 205 211 194 188 190
348 348 346 358 318 343 323 307 284 325 265 6 37 351 345 145 265 337 292 236 298 284 262 263 215 290 244 53 312 113 86 54 43 101 243 217 168 266 226 226 227 193 184 171 152
347 341 347 15 346 329 315 289 0 191 343 331 337 347 325 313 312 218 260 227 274 304 226 294 241 190 161 145 338 165 128 170 211 212 232 164 170 248 303 308 231 193 167 152 150
342 331 308 30 335 331 312 4 140 294 338 351 347 324 319 313 297 263 293 270 226 209 302 300 287 203 183 218 172 196 184 192 227 205 240 326 213 245 206 62 83 138 142 137 147
335 331 13 342 336 324 329 50 10 10 351 336 329 306 316 333 17 348 308 276 288 38 217 285 241 334 81 223 222 201 230 255 325 133 214 217 267 290 167 162 158 136 135 149 153
323 300 36 334 329 304 35 359 343 11 343 339 305 297 336 330 327 329 308 289 288 349 124 299 293 4 14 345 296 195 304 167 195 210 226 239 250 242 207 194 187 163 157 161 156
322 337 7 332 306 26 50 355 329 347 341 339 316 306 310 309 307 310 259 307 10 341 187 205 209 210 67 211 200 171 233 217 175 255 256 233 255 9 15 190 187 185 161 160 156
342 357 356 339 43 33 30 338 336 334 337 345 332 316 351 332 296 309 294 304 20 309 277 286 317 287 222 316 339 298 218 234 230 206 244 38 274 56 3 332 164 181 150 145 145
351 306 314 322 43 11 2 325 310 336 344 326 318 313 318 317 307 332 310 320 300 345 341 348 249 308 281 174 191 209 240 260 233 124 246 202 245 83 72 42 33 144 142 138 144
358 326 5 7 341 10 331 305 340 318 307 309 297 308 313 303 295 307 298 306 333 268 272 288 255 224 244 273 64 275 291 248 224 226 229 233 278 282 54 65 38 12 99 147 155
328 19 61 316 356 309 304 304 311 302 294 348 324 312 313 304 314 304 334 323 312 6 14 4 288 310 303 300 292 277 282 286 232 237 262 341 282 298 57 341 280 189 247 168 182
306 299 222 271 269 275 292 282 290 292 320 315 304 304 304 291 283 292 314 315 286 330 333 340 304 318 291 285 355 303 267 244 249 250 234 243 267 272 283 130 142 234 203 210 199
329 291 252 254 261 276 250 284 299 305 293 282 299 308 300 289 295 302 298 278 280 286 290 287 277 308 287 321 334 304 250 252 254 249 244 238 251 269 208 209 227 215 209 209 196